Terminal Aerodrome Forecast
Issued by NWS

Home | Current Version | Previous Version | Text Only | Print | Product List | Glossary On
Versions: 1 2 3 4 5 6 7 8 9 10 11 12 13 14 15 16 17 18
824
FTUS46 KLOX 061459 AAB
TAFBUR
TAF AMD
KBUR 061459Z 0615/0712 00000KT P6SM BKN027
     FM061700 VRB03KT P6SM SCT030
     FM062000 17008KT P6SM BKN250
     FM070300 VRB03KT P6SM BKN250=

USA.gov is the U.S. government's official web portal to all federal, state and local government web resources and services.